Robstown, TX

8:09 PM CDT on September 22, 2017 (GMT -0500)
Robstown

Weather History for KRBO - June, 2013

Change the Weather History Date:

Wednesday, June 12, 2013

  Actual Average (KCRP) Record (KCRP)
Temperature  
Mean Temperature 87 °F -  
Max Temperature 96 °F 89 °F 100 °F (1953)
Min Temperature 78 °F 72 °F 63 °F (1979)
Cooling Degree Days 22    
Growing Degree Days 37 (Base 50)    
Moisture  
Dew Point 74 °F    
Average Humidity 74    
Maximum Humidity 89    
Minimum Humidity 33    
Precipitation  
Precipitation 0.00 in - - ()
Sea Level Pressure  
Sea Level Pressure 29.99 in    
Wind  
Wind Speed 5 mph (SE)    
Max Wind Speed 23 mph    
Max Gust Speed 29 mph    
Visibility 10 miles    
Events Thunderstorm    
Averages and records for this station are not official NWS values.
T = Trace of Precipitation, MM = Missing Value Source: NWS Daily Summary

Daily Weather History Graph

Daily Weather History Graph

Search for Another Location

Airport or City:

Trip Planner

Search our weather history database for the weather conditions in past years. The results will help you decide how hot, cold, wet, or windy it might be!

Date:

Astronomy

Jun. 12, 2013 Rise Set
Actual Time 6:34 AM CDT 8:27 PM CDT
Civil Twilight 6:07 AM CDT 8:53 PM CDT
Nautical Twilight 5:35 AM CDT 9:25 PM CDT
Astronomical Twilight 5:01 AM CDT 9:59 PM CDT
Moon 10:00 AM CDT (6/12) 11:20 PM CDT (6/12)
Length of Visible Light 14h 46m
Length of Day
13h 52m
Waxing Crescent, 14% of the Moon is Illuminated
Jun 12
Waxing Crescent
Jun 16
First Quarter
Jun 23
Full
Jun 29
Last Quarter
Jul 8
New

Hourly Weather History & Observations

Time (CDT) Temp. Heat Index Dew Point Humidity Pressure Visibility Wind Dir Wind Speed Gust Speed Precip Events Conditions
12:15 AM 80.6 °F 86.0 °F 75.0 °F 83% 30.01 in 10.0 mi Calm Calm - N/A   Scattered Clouds
12:35 AM 80.8 °F 86.7 °F 75.4 °F 84% 30.01 in 10.0 mi Calm Calm - N/A   Scattered Clouds
12:55 AM 80.6 °F 86.2 °F 75.4 °F 84% 30.02 in 10.0 mi Calm Calm - N/A   Clear
1:15 AM 80.6 °F 86.2 °F 75.4 °F 84% 30.01 in 10.0 mi Calm Calm - N/A   Clear
1:35 AM 81.1 °F 87.4 °F 75.6 °F 83% 30.01 in 10.0 mi Calm Calm - N/A   Clear
1:55 AM 81.3 °F 87.8 °F 75.6 °F 83% 30.00 in 10.0 mi Calm Calm - N/A   Clear
2:15 AM 81.5 °F 88.3 °F 75.7 °F 83% 30.00 in 10.0 mi Calm Calm - N/A   Clear
2:35 AM 81.7 °F 88.7 °F 76.1 °F 83% 30.00 in 10.0 mi Calm Calm - N/A   Clear
2:55 AM 81.5 °F 88.5 °F 76.1 °F 84% 29.99 in 10.0 mi Calm Calm - N/A   Clear
3:15 AM 81.5 °F 88.5 °F 76.1 °F 84% 29.99 in 10.0 mi Calm Calm - N/A   Scattered Clouds
3:35 AM 81.1 °F 87.6 °F 75.7 °F 84% 29.99 in 10.0 mi Calm Calm - N/A   Clear
3:55 AM 81.0 °F 87.1 °F 75.6 °F 84% 29.99 in 10.0 mi Calm Calm - N/A   Clear
4:15 AM 80.6 °F 86.4 °F 75.6 °F 85% 29.99 in 10.0 mi Calm Calm - N/A   Clear
4:35 AM 80.1 °F 85.2 °F 75.4 °F 86% 29.98 in 10.0 mi Calm Calm - N/A Thunderstorm Clear
4:55 AM 79.9 °F - 75.4 °F 86% 29.99 in 10.0 mi Calm Calm - N/A   Scattered Clouds
5:15 AM 79.5 °F - 75.2 °F 87% 29.99 in 10.0 mi Calm Calm - N/A   Scattered Clouds
5:35 AM 79.3 °F - 75.2 °F 87% 29.99 in 10.0 mi Calm Calm - N/A   Scattered Clouds
5:55 AM 79.2 °F - 75.2 °F 88% 30.00 in 10.0 mi Calm Calm - N/A   Clear
6:15 AM 78.8 °F - 75.2 °F 89% 30.00 in 10.0 mi Calm Calm - N/A   Clear
6:35 AM 79.0 °F - 75.4 °F 89% 30.00 in 10.0 mi Calm Calm - N/A   Clear
6:55 AM 79.0 °F - 75.4 °F 89% 30.01 in 10.0 mi Calm Calm - N/A   Clear
7:15 AM 78.6 °F - 75.2 °F 89% 30.00 in 10.0 mi Calm Calm - N/A   Clear
7:35 AM 78.8 °F - 75.2 °F 89% 30.01 in 10.0 mi Calm Calm - N/A Thunderstorm Thunderstorm
7:55 AM 79.3 °F - 75.7 °F 89% 30.02 in 10.0 mi Calm Calm - N/A   Clear
8:15 AM 80.4 °F 86.5 °F 76.5 °F 88% 30.02 in 10.0 mi Calm Calm - N/A   Clear
8:35 AM 84.2 °F 94.9 °F 77.9 °F 81% 30.03 in 10.0 mi Calm Calm - N/A   Clear
8:55 AM 85.6 °F 97.7 °F 77.9 °F 78% 30.03 in 10.0 mi Calm Calm - N/A Thunderstorm Scattered Clouds
9:15 AM 86.2 °F 97.4 °F 76.8 °F 74% 30.03 in 10.0 mi SSE 10.4 mph - N/A   Mostly Cloudy
3:15 PM 95.5 °F 98.9 °F 66.2 °F 38% 29.98 in 10.0 mi SE 18.4 mph 27.6 mph N/A   Unknown
3:35 PM 96.1 °F 97.3 °F 63.0 °F 33% 29.97 in 10.0 mi SSE 17.3 mph 23.0 mph N/A   Clear
3:55 PM 95.7 °F 98.7 °F 65.7 °F 37% 29.96 in 10.0 mi SE 23.0 mph 28.8 mph N/A   Clear
4:15 PM 95.2 °F 102.3 °F 71.1 °F 45% 29.95 in 10.0 mi ESE 19.6 mph 27.6 mph N/A   Scattered Clouds
4:35 PM 95.0 °F 100.1 °F 68.9 °F 42% 29.95 in 10.0 mi SSE 19.6 mph 24.2 mph N/A   Clear
4:55 PM 94.1 °F 101.8 °F 71.6 °F 48% 29.95 in 10.0 mi SSE 20.7 mph 27.6 mph N/A   Clear
5:15 PM 93.2 °F 100.5 °F 71.6 °F 49% 29.95 in 10.0 mi SE 20.7 mph 26.5 mph N/A   Clear
5:35 PM 92.7 °F 100.5 °F 72.3 °F 51% 29.95 in 10.0 mi SE 19.6 mph 25.3 mph N/A   Clear
5:55 PM 91.4 °F 100.1 °F 73.2 °F 55% 29.95 in 10.0 mi SE 21.9 mph 28.8 mph N/A   Scattered Clouds
6:15 PM 90.0 °F 97.9 °F 73.0 °F 57% 29.95 in 10.0 mi ESE 20.7 mph 25.3 mph N/A   Scattered Clouds
6:35 PM 88.7 °F 96.2 °F 72.9 °F 59% 29.95 in 10.0 mi SE 17.3 mph 26.5 mph N/A   Scattered Clouds
6:55 PM 89.4 °F 96.8 °F 72.1 °F 57% 29.95 in 10.0 mi SE 15.0 mph 21.9 mph N/A   Clear
7:15 PM 88.7 °F 95.2 °F 71.6 °F 57% 29.95 in 10.0 mi SE 20.7 mph - N/A   Clear
7:35 PM 87.8 °F 95.6 °F 73.2 °F 62% 29.96 in 10.0 mi SE 18.4 mph 24.2 mph N/A   Clear
7:55 PM 86.2 °F 94.6 °F 74.7 °F 68% 29.97 in 10.0 mi SE 19.6 mph 23.0 mph N/A   Clear
8:15 PM 85.3 °F 93.4 °F 74.5 °F 70% 29.97 in 10.0 mi SE 18.4 mph - N/A   Clear
8:35 PM 84.9 °F 93.3 °F 74.8 °F 72% 29.98 in 10.0 mi SE 17.3 mph - N/A   Scattered Clouds
8:55 PM 84.4 °F 92.7 °F 75.2 °F 74% 29.98 in 10.0 mi SE 13.8 mph 19.6 mph N/A   Clear
9:15 PM 84.2 °F 92.3 °F 75.2 °F 74% 29.97 in 10.0 mi SE 16.1 mph 20.7 mph N/A   Clear
9:35 PM 83.7 °F 91.7 °F 75.2 °F 76% 29.99 in 10.0 mi SE 13.8 mph - N/A   Clear
9:55 PM 83.5 °F 91.2 °F 75.4 °F 76% 29.99 in 10.0 mi SE 11.5 mph - N/A   Clear
10:15 PM 83.3 °F 91.1 °F 75.4 °F 77% 29.99 in 10.0 mi SE 11.5 mph - N/A   Clear
10:35 PM 83.1 °F 91.0 °F 75.7 °F 78% 30.00 in 10.0 mi SE 11.5 mph - N/A   Clear
10:55 PM 82.9 °F 90.8 °F 75.9 °F 79% 30.00 in 10.0 mi SE 11.5 mph - N/A   Clear
11:15 PM 82.8 °F 90.7 °F 76.1 °F 80% 30.00 in 10.0 mi SE 9.2 mph - N/A   Clear
11:35 PM 82.8 °F 90.7 °F 75.9 °F 80% 30.00 in 10.0 mi Calm Calm - N/A   Clear
11:55 PM 82.6 °F 90.5 °F 76.1 °F 81% 30.00 in 10.0 mi SE 8.1 mph - N/A   Clear